Regional Weather Roundup
Issued by NWS

Home | Current Version | Previous Version | Graphics & Text | Print | Product List | Glossary On
Versions: 1 2 3 4 5 6 7 8 9 10 11 12 13 14 15 16 17 18 19 20 21 22 23 24 25 26 27 28 29 30 31 32 33 34 35 36 37 38 39 40 41 42 43 44 45 46 47 48 49 50
000
ASUS44 KMEG 011410
RWRTN
TENNESSEE HOURLY STATE WEATHER ROUNDUP
NATIONAL WEATHER SERVICE MEMPHIS TN
900 AM CDT FRI AUG 01 2014

TNZ002-004-019-021-049-052-054-088>092-011500-
WEST TENNESSEE

CITY           SKY/WX    TMP DP  RH WIND       PRES   REMARKS
MEMPHIS INTL   CLOUDY    75  65  70 E6        30.08S
NWS MEMPHIS      N/A     73 N/A N/A MISG        N/A
JACKSON        MOSUNNY   74  64  71 NE5       30.09R
DYERSBURG      MOSUNNY   72  61  68 NE3       30.10S
UNION CITY     CLOUDY    68  66  94 CALM      30.09R
PARIS          SUNNY     71  64  78 N3        30.10R
LEXINGTON      MOSUNNY   72  64  78 N3        30.08S
SAVANNAH       MOSUNNY   72  69  90 CALM      30.09R
$$

TNZ008-025-027-028-033-062-065-066-011500-
NORTH MIDDLE TENNESSEE

CITY           SKY/WX    TMP DP  RH WIND       PRES   REMARKS
NASHVILLE      MOSUNNY   77  65  66 CALM      30.10R
DICKSON        SUNNY     73  63  68 E3        30.09S
PORTLAND       SUNNY     72  63  73 CALM      30.09S
CLARKSVILLE    SUNNY     72  62  71 CALM      30.09S
LEBANON        SUNNY     72  61  68 CALM      30.08S
SMYRNA         SUNNY     73  69  87 E3        30.10S
MURFREESBORO   SUNNY     74  64  70 CALM      30.09S
COOKEVILLE     PTSUNNY   68  64  88 CALM      30.11S
GALLATIN       SUNNY     71  64  78 SE3       30.10S
CROSSVILLE     SUNNY     73  63  70 CALM      30.15S
$$

TNZ061-075-076-078-094-096-097-011500-
SOUTH MIDDLE TENNESSEE

CITY           SKY/WX    TMP DP  RH WIND       PRES   REMARKS
LEWISBURG      SUNNY     72  63  73 CALM      30.09R
FAYETTEVILLE   SUNNY     70  64  83 E9        30.10S
TULLAHOMA      SUNNY     72  63  73 NE3       30.11F
WINCHESTER     SUNNY     73  64  73 E7        30.10F
MCMINNVILLE    SUNNY     73  72  94 CALM      30.11S
COLUMBIA       SUNNY     70  66  88 CALM      30.08R
SHELBYVILLE    SUNNY     75  66  73 E3        30.10F
$$

TNZ017-018-042-046-047-011500-
NORTHEAST TENNESSEE

CITY           SKY/WX    TMP DP  RH WIND       PRES   REMARKS
TRI CITIES     CLOUDY    70  61  73 CALM      30.16R
ELIZABETHTON   CLOUDY    66  57  72 E6        30.17S
$$

TNZ012-013-036-069-073-074-011500-
CENTRAL EAST TENNESSEE

CITY           SKY/WX    TMP DP  RH WIND       PRES   REMARKS
KNOXVILLE      MOSUNNY   74  63  68 VRB3      30.10F
OAK RIDGE      CLOUDY    72  64  76 CALM      30.13S
GATLINBURG     SUNNY     73  64  73 CALM      30.11S
MORRISTOWN     SUNNY     72  63  73 CALM      30.13S
$$

TNZ083-085-099-011500-
SOUTHEAST TENNESSEE

CITY           SKY/WX    TMP DP  RH WIND       PRES   REMARKS
CHATTANOOGA    PTSUNNY   74  66  76 CALM      30.10S
$$

SKY/WX REPORTED AS FAIR MEANS FEW OR NO CLOUDS BELOW
12 THOUSAND FEET.




USA.gov is the U.S. government's official web portal to all federal, state and local government web resources and services.